{"data":{"norad_id":48682,"epoch":"2026-09-19T15:39:17.574336Z","epoch_age_seconds":114456,"freshness":"FRESH","line1":"1 48682U 21044AW  26262.65228674 -.00000039  00000+0  10501-4 0  9990","line2":"2 48682  53.1598 242.3370 0001173  97.5306 262.5829 15.31696863294225","mean_motion":15.31696863,"eccentricity":0.0001173,"inclination_deg":53.1598,"raan_deg":242.337,"arg_perigee_deg":97.5306,"mean_anomaly_deg":262.5829,"bstar":1.0501e-5,"rev_number":29422,"period_min":94.013380505304,"perigee_km":469.94597210693,"apogee_km":471.55272084381,"semimajor_km":6848.8863464754,"source":"CELESTRAK","updated_at":"2026-09-20T09:00:39.243223Z"}}